Weather History for KBRL - April, 2014

Change the Weather History Date:

Friday, April 4, 2014

  Actual Average Record
Temperature  
Mean Temperature 42 °F 50 °F  
Max Temperature 49 °F 61 °F 86 °F (1929)
Min Temperature 34 °F 39 °F 15 °F (1975)
Degree Days  
Heating Degree Days 23 16  
Month to date heating degree days 88 65  
Since 1 July heating degree days 6376 5171  
Cooling Degree Days 0 0  
Month to date cooling degree days 0 0  
Year to date cooling degree days 0 2  
Moisture  
Dew Point 34 °F    
Average Humidity 79    
Maximum Humidity 100    
Minimum Humidity 57    
Precipitation  
Precipitation 0.02 in 0.10 in 0.57 in (1962)
Month to date precipitation 1.32 0.39  
Year to date precipitation 6.86 6.04  
Sea Level Pressure  
Sea Level Pressure 29.75 in    
Wind  
Wind Speed 15 mph (West)    
Max Wind Speed 26 mph    
Max Gust Speed 37 mph    
Visibility 8 miles    
Events Fog , Snow    
T = Trace of Precipitation, MM = Missing Value Source: NWS Daily Summary

Daily Weather History Graph

Daily Weather History Graph

Search for Another Location

Airport or City:

Trip Planner

Search our weather history database for the weather conditions in past years. The results will help you decide how hot, cold, wet, or windy it might be!

Date:

Astronomy

Apr. 04, 2014 Rise Set
Actual Time 6:43 AM CDT 7:32 PM CDT
Civil Twilight 6:15 AM CDT 8:00 PM CDT
Nautical Twilight 5:42 AM CDT 8:33 PM CDT
Astronomical Twilight 5:08 AM CDT 9:07 PM CDT
Moon 9:58 AM CDT (4/4) No Moon Set
Length of Visible Light 13h 45m
Length of Day
12h 49m
Waxing Crescent, 25% of the Moon is Illuminated
Apr 4
Waxing Crescent
Apr 7
First Quarter
Apr 15
Full
Apr 22
Last Quarter
Apr 29
New

Hourly Weather History & Observations

Time (CDT) Temp. Windchill Dew Point Humidity Pressure Visibility Wind Dir Wind Speed Gust Speed Precip Events Conditions
12:02 AM 44.1 °F 40.1 °F 44.1 °F 100% 29.54 in 0.8 mi ENE 6.9 mph - N/A   Overcast
12:53 AM 44.1 °F 40.1 °F 44.1 °F 100% 29.56 in 0.5 mi South 6.9 mph - N/A Fog Fog
1:18 AM 45.0 °F 40.6 °F 44.1 °F 97% 29.54 in 1.5 mi ESE 8.1 mph - N/A   Overcast
1:53 AM 45.0 °F 41.8 °F 45.0 °F 100% 29.52 in 1.5 mi SSE 5.8 mph - N/A   Overcast
2:42 AM 48.9 °F - 48.0 °F 97% 29.52 in 3.0 mi WSW 19.6 mph 29.9 mph 0.01 in   Overcast
2:53 AM 48.0 °F - 46.9 °F 96% 29.53 in 5.0 mi WSW 19.6 mph 29.9 mph 0.01 in   Overcast
3:18 AM 46.0 °F 39.3 °F 45.0 °F 96% 29.52 in 10.0 mi WSW 16.1 mph 23.0 mph N/A   Overcast
3:30 AM 46.9 °F - 44.1 °F 90% 29.52 in 10.0 mi WSW 13.8 mph 24.2 mph N/A   Overcast
3:53 AM 46.9 °F - 44.1 °F 90% 29.53 in 10.0 mi WSW 18.4 mph 29.9 mph N/A   Overcast
4:12 AM 45.0 °F 36.2 °F 43.0 °F 93% 29.53 in 9.0 mi WSW 24.2 mph 32.2 mph N/A   Overcast
4:53 AM 42.1 °F 33.6 °F 39.9 °F 92% 29.57 in 10.0 mi WSW 18.4 mph 29.9 mph 0.00 in   Overcast
5:53 AM 37.9 °F 26.6 °F 35.1 °F 89% 29.62 in 10.0 mi West 25.3 mph 32.2 mph N/A   Overcast
6:44 AM 36.0 °F 25.3 °F 32.0 °F 86% 29.63 in 10.0 mi West 19.6 mph 29.9 mph N/A   Overcast
6:53 AM 36.0 °F 25.0 °F 32.0 °F 86% 29.65 in 10.0 mi West 20.7 mph 31.1 mph N/A   Overcast
7:09 AM 36.0 °F 25.0 °F 32.0 °F 86% 29.65 in 10.0 mi West 20.7 mph 29.9 mph N/A   Overcast
7:30 AM 35.1 °F 25.2 °F 32.0 °F 89% 29.66 in 4.0 mi West 16.1 mph 31.1 mph 0.00 in Snow Light Snow
7:40 AM 34.0 °F 23.8 °F 32.0 °F 92% 29.67 in 2.5 mi West 16.1 mph 25.3 mph 0.00 in Snow Light Snow
7:42 AM 34.0 °F 23.4 °F 32.0 °F 92% 29.67 in 2.0 mi West 17.3 mph 25.3 mph 0.00 in Snow Light Snow
7:44 AM 34.0 °F 23.8 °F 32.0 °F 92% 29.67 in 1.8 mi West 16.1 mph 25.3 mph 0.00 in Snow Light Snow
7:53 AM 34.0 °F 23.4 °F 32.0 °F 92% 29.69 in 1.5 mi West 17.3 mph 25.3 mph 0.01 in Snow Light Snow
8:00 AM 35.1 °F 25.2 °F 32.0 °F 89% 29.68 in 4.0 mi WNW 16.1 mph 28.8 mph 0.00 in Snow Light Snow
8:53 AM 34.0 °F 22.4 °F 30.9 °F 89% 29.72 in 7.0 mi WNW 20.7 mph 29.9 mph 0.00 in   Overcast
9:46 AM 35.1 °F 25.5 °F 30.0 °F 82% 29.74 in 10.0 mi WNW 15.0 mph 32.2 mph N/A   Overcast
9:53 AM 35.1 °F 26.4 °F 30.0 °F 82% 29.76 in 10.0 mi WNW 12.7 mph 28.8 mph N/A   Overcast
10:53 AM 36.0 °F 25.6 °F 28.9 °F 76% 29.79 in 10.0 mi WNW 18.4 mph 29.9 mph N/A   Overcast
11:53 AM 37.0 °F 27.0 °F 28.9 °F 73% 29.82 in 10.0 mi WNW 18.4 mph 32.2 mph N/A   Overcast
12:53 PM 37.9 °F 27.9 °F 28.9 °F 70% 29.84 in 10.0 mi West 19.6 mph 31.1 mph N/A   Overcast
1:53 PM 39.0 °F 28.8 °F 28.9 °F 67% 29.87 in 10.0 mi WNW 21.9 mph 34.5 mph N/A   Overcast
2:12 PM 39.9 °F 30.8 °F 28.0 °F 63% 29.86 in 10.0 mi WNW 18.4 mph 33.4 mph N/A   Overcast
2:53 PM 41.0 °F 32.5 °F 28.9 °F 62% 29.89 in 10.0 mi WNW 17.3 mph 32.2 mph N/A   Overcast
3:53 PM 41.0 °F 31.9 °F 28.9 °F 62% 29.91 in 10.0 mi WNW 19.6 mph 32.2 mph N/A   Overcast
4:53 PM 42.1 °F 34.5 °F 28.9 °F 60% 29.94 in 10.0 mi WNW 15.0 mph 26.5 mph N/A   Overcast
5:53 PM 42.1 °F 34.9 °F 28.0 °F 58% 29.97 in 10.0 mi NW 13.8 mph 26.5 mph N/A   Overcast
6:53 PM 41.0 °F 33.9 °F 28.9 °F 62% 30.00 in 10.0 mi WNW 12.7 mph 23.0 mph N/A   Overcast
7:53 PM 39.9 °F 32.1 °F 28.9 °F 65% 30.04 in 10.0 mi WNW 13.8 mph 23.0 mph N/A   Overcast
8:53 PM 39.9 °F 33.9 °F 28.0 °F 63% 30.08 in 10.0 mi WNW 9.2 mph - N/A   Overcast
9:53 PM 39.0 °F 32.3 °F 28.0 °F 65% 30.10 in 10.0 mi WNW 10.4 mph - N/A   Overcast
10:53 PM 39.0 °F 34.0 °F 28.0 °F 65% 30.13 in 10.0 mi NW 6.9 mph - N/A   Overcast
11:53 PM 37.9 °F 33.5 °F 28.9 °F 70% 30.13 in 10.0 mi NW 5.8 mph - N/A   Overcast